#timestamp,LO_Frequency,Hit,StdDev 
1569722415.8,286046999.9,N
1569722435.7,286046998.3,N
1569722455.5,286046998.9,N
1569722475.4,286046997.4,N
1569722495.2,286046999.1,N
1569722515.0,286046998.4,N
1569722515.9,286046998.4,N
1569722535.8,286046998.3,N
1569722555.6,286046999.5,N
1569722575.4,286046996.6,N
1569722595.3,286046997.6,N
1569722615.1,286046996.9,N
1569722635.9,286046997.9,N
1569722655.7,286046997.8,N
1569722675.5,286046996.1,N
1569722695.4,286046995.7,N
1569722715.2,286046997.3,N
1569722735.0,286046997.4,N
1569722735.9,286046997.4,N
1569722755.8,286046999.2,N
1569722775.6,286047000.0,N
1569722795.5,286046999.6,N
1569722815.3,286046999.6,N
1569722835.1,286046999.8,N
1569722855.9,286047000.2,N
1569722875.7,286046999.8,N
1569722895.5,286047001.2,N
1569722915.4,286047000.6,N
1569722935.2,286047000.9,N
1569722955.1,286047002.5,N
1569722956.0,286047002.5,N
1569722975.8,286046999.2,N
1569722995.6,286046999.6,N
1569723015.5,286046999.3,N
1569723035.3,286046998.3,N
1569723055.1,286047001.1,N
1569723075.9,286047001.1,N
1569723095.7,286046998.5,N
1569723115.6,286046998.6,N
1569723135.4,286046998.5,N
1569723155.2,286046999.3,N
1569723175.1,286046999.1,N
1569723176.0,286046999.1,N
1569723195.8,286046998.8,N
1569723215.6,286046999.6,N
1569723235.5,286046997.6,N
1569723255.3,286046998.0,N
1569723275.2,286046995.4,Y
1569723295.9,286046996.6,P
1569723315.7,286046998.0,N
1569723335.6,286046996.5,N
1569723355.4,286047000.7,N
1569723375.3,286046998.8,N
1569723395.1,286046999.2,N
1569723396.0,286046999.2,N
1569723415.8,286047000.3,N
1569723435.7,286047000.0,N
1569723455.5,286047001.3,N
1569723475.3,286047002.1,N
1569723495.2,286047001.2,N
1569723515.0,286046998.1,N
1569723515.9,286046998.1,N
1569723535.8,286046996.6,N
1569723555.6,286047002.8,N
1569723575.4,286046999.7,N
1569723595.3,286047000.2,N
1569723615.1,286047001.6,N
1569723635.8,286047000.6,N
1569723655.7,286047000.1,N
1569723675.5,286047004.4,N
1569723695.4,286047000.5,N
1569723715.2,286046999.3,N
1569723735.0,286046995.3,N
1569723735.9,286046995.3,N
1569723755.8,286046997.4,N
1569723775.6,286046999.5,N
1569723795.4,286046997.1,N
1569723815.3,286046996.5,N
1569723835.1,286046997.8,N
1569723855.9,286046995.5,N
1569723875.7,286046996.2,N
1569723895.5,286046995.2,N
1569723915.4,286046994.9,N
1569723935.2,286046995.7,N
1569723955.0,286046994.6,N
1569723955.9,286046994.6,N
1569723975.8,286046994.3,N
1569723995.6,286046994.5,N
1569724015.5,286046993.3,N
1569724035.3,286046996.4,N
1569724055.1,286046993.7,N
1569724075.9,286046993.3,N
1569724095.7,286046993.4,N
1569724115.5,286046995.6,N
1569724135.4,286046997.9,N
1569724155.2,286046996.6,N
1569724175.0,286046997.0,N
1569724176.0,286046997.0,N
1569724195.8,286046997.5,N
1569724215.6,286046996.3,N
1569724235.5,286046995.0,N
1569724255.3,286046996.1,N
1569724275.2,286046993.3,Y
1569724295.9,286046999.9,P
1569724315.7,286046998.1,N
1569724335.6,286046999.0,N
1569724355.4,286046999.1,N
1569724375.2,286046998.7,N
1569724395.1,286046999.1,N
1569724396.0,286046999.1,N
1569724415.8,286047000.6,N
1569724435.7,286046999.0,N
1569724455.5,286046998.8,N
1569724475.3,286046996.8,N
1569724495.2,286047001.1,N
1569724515.0,286046999.7,N
1569724515.9,286046999.7,N
1569724535.8,286047002.5,N
1569724555.6,286046999.9,N
1569724575.4,286047001.4,N
1569724595.3,286047000.8,N
1569724615.1,286047002.0,N
1569724635.8,286047001.3,N
1569724655.7,286047000.2,N
1569724675.5,286047000.8,N
1569724695.4,286047001.6,N
1569724715.2,286047004.4,N
1569724735.0,286047003.8,N
1569724735.9,286047003.8,N
1569724755.8,286047003.9,N
1569724775.6,286047001.9,N
1569724795.5,286047002.0,N
1569724815.3,286047000.6,N
1569724835.1,286046999.8,N
1569724855.9,286047001.5,N
1569724875.7,286047001.6,N
1569724895.5,286047003.4,N
1569724915.4,286047005.9,Y
1569724935.2,286047002.1,P
1569724955.1,286047004.2,P
1569724956.0,286047004.2,P
1569724975.8,286047001.4,N
1569724995.6,286047001.8,N
1569725015.5,286047006.7,Y
1569725035.3,286047003.1,P
1569725055.2,286047003.7,P
1569725075.9,286047001.3,N
1569725095.7,286046998.8,N
1569725115.6,286046996.9,N
1569725135.4,286046997.1,N
1569725155.2,286046997.2,N
1569725175.1,286046999.4,N
1569725176.0,286046999.4,N
1569725195.8,286046996.8,N
1569725215.7,286046995.1,N
1569725235.5,286046996.8,N
1569725255.3,286046997.5,N
1569725275.2,286046995.2,N
1569725295.0,286046998.0,N
1569725295.9,286046998.0,N
1569725315.7,286046995.7,N
1569725335.6,286046997.8,N
1569725355.4,286046995.2,N
1569725375.3,286046996.0,N
1569725395.1,286046993.5,N
1569725396.0,286046993.5,N
1569725415.8,286046995.0,N
1569725435.7,286046997.7,N
1569725455.5,286046996.2,N
1569725475.3,286046996.6,N
1569725495.2,286046997.6,N
1569725515.0,286046997.8,N
1569725515.9,286046997.8,N
1569725535.8,286046997.2,N
1569725555.6,286046997.1,N
1569725575.4,286046997.0,N
1569725595.3,286046999.4,N
1569725615.1,286046998.4,N
1569725635.8,286046999.2,N
1569725655.7,286046996.8,N
1569725675.5,286046996.6,N
1569725695.4,286046997.3,N
1569725715.2,286046996.9,N
1569725735.0,286046996.6,N
1569725735.9,286046996.6,N
1569725755.8,286046997.4,N
1569725775.6,286046997.8,N
1569725795.5,286046995.5,Y
1569725815.3,286046996.5,P
1569725835.1,286046999.6,N
1569725855.9,286046998.5,N
1569725875.7,286046998.1,N
1569725895.5,286046999.2,N
1569725915.4,286046996.5,Y
1569725935.2,286047000.8,P
1569725955.1,286047001.1,N
1569725956.0,286047001.1,N
1569725975.8,286047000.1,N
1569725995.6,286047000.3,N
